• en Suisse
  • Liste des pays
  • À 7 jours
  • Température de l'eau
  • Carte satellitaire
  • Carte météo
  • Widgets météo
  • user-avatar
    Se connecter

    Météo par heure à Bandar Abbas

    Ce jour, 18 Octobre, Jeudi

    Heure Température Précipitation Vent Pression Humidité
    00:00 +32°C° 0 mm 1 m/s 759 mmHg 23%
    01:00 +31°C° 0 mm 1 m/s 759 mmHg 23%
    02:00 +31°C° 0 mm 2 m/s 759 mmHg 23%
    03:00 +31°C° 0 mm 2 m/s 759 mmHg 23%
    04:00 +30°C° 0 mm 2 m/s 759 mmHg 25%
    05:00 +30°C° 0 mm 2 m/s 759 mmHg 25%
    06:00 +30°C° 0 mm 2 m/s 759 mmHg 24%
    07:00 +30°C° 0 mm 3 m/s 759 mmHg 23%
    08:00 +33°C° 0 mm 3 m/s 759 mmHg 21%
    09:00 +35°C° 0 mm 3 m/s 760 mmHg 18%
    10:00 +36°C° 0 mm 3 m/s 760 mmHg 16%
    11:00 +37°C° 0 mm 3 m/s 759 mmHg 16%
    12:00 +38°C° 0 mm 3 m/s 759 mmHg 15%
    13:00 +38°C° 0 mm 2 m/s 758 mmHg 15%
    14:00 +38°C° 0 mm 3 m/s 758 mmHg 15%
    15:00 +38°C° 0 mm 3 m/s 758 mmHg 15%
    16:00 +38°C° 0 mm 3 m/s 757 mmHg 15%
    17:00 +37°C° 0 mm 2 m/s 757 mmHg 18%
    18:00 +36°C° 0 mm 2 m/s 758 mmHg 20%
    19:00 +35°C° 0 mm 2 m/s 758 mmHg 23%
    20:00 +33°C° 0 mm 1 m/s 758 mmHg 24%
    21:00 +32°C° 0 mm 1 m/s 759 mmHg 25%
    22:00 +32°C° 0 mm 1 m/s 759 mmHg 26%
    23:00 +31°C° 0 mm 1 m/s 759 mmHg 27%

    Demain, 19 Octobre, Vendredi

    Heure Température Précipitation Vent Pression Humidité
    00:00 +31°C° 0 mm 1 m/s 759 mmHg 28%
    01:00 +31°C° 0 mm 2 m/s 759 mmHg 29%
    02:00 +30°C° 0 mm 2 m/s 759 mmHg 28%
    03:00 +30°C° 0 mm 2 m/s 759 mmHg 27%
    04:00 +30°C° 0 mm 2 m/s 759 mmHg 27%
    05:00 +30°C° 0 mm 2 m/s 759 mmHg 26%
    06:00 +30°C° 0 mm 2 m/s 759 mmHg 26%
    07:00 +30°C° 0 mm 2 m/s 760 mmHg 25%
    08:00 +31°C° 0 mm 2 m/s 760 mmHg 23%
    09:00 +34°C° 0 mm 2 m/s 761 mmHg 20%
    10:00 +36°C° 0 mm 3 m/s 761 mmHg 17%
    11:00 +36°C° 0 mm 3 m/s 761 mmHg 17%
    12:00 +37°C° 0 mm 3 m/s 760 mmHg 16%
    13:00 +38°C° 0 mm 3 m/s 760 mmHg 16%
    14:00 +37°C° 0 mm 3 m/s 760 mmHg 16%
    15:00 +37°C° 0 mm 3 m/s 759 mmHg 17%
    16:00 +37°C° 0 mm 4 m/s 759 mmHg 18%
    17:00 +36°C° 0 mm 3 m/s 759 mmHg 21%
    18:00 +35°C° 0 mm 2 m/s 759 mmHg 25%
    19:00 +34°C° 0 mm 2 m/s 760 mmHg 28%
    20:00 +32°C° 0 mm 1 m/s 760 mmHg 31%
    21:00 +32°C° 0 mm 1 m/s 760 mmHg 33%
    22:00 +31°C° 0 mm 1 m/s 761 mmHg 36%
    23:00 +30°C° 0 mm 1 m/s 761 mmHg 36%

    Après-demain, 20 Octobre, Samedi

    Heure Température Précipitation Vent Pression Humidité
    00:00 +30°C° 0 mm 1 m/s 760 mmHg 37%
    01:00 +29°C° 0 mm 2 m/s 760 mmHg 37%
    02:00 +29°C° 0 mm 2 m/s 760 mmHg 36%
    03:00 +29°C° 0 mm 2 m/s 760 mmHg 36%
    04:00 +29°C° 0 mm 2 m/s 760 mmHg 35%
    05:00 +29°C° 0 mm 2 m/s 760 mmHg 33%
    06:00 +29°C° 0 mm 2 m/s 761 mmHg 31%
    07:00 +29°C° 0 mm 2 m/s 761 mmHg 29%
    08:00 +31°C° 0 mm 2 m/s 761 mmHg 26%
    09:00 +34°C° 0 mm 2 m/s 761 mmHg 22%
    10:00 +35°C° 0 mm 2 m/s 762 mmHg 19%
    11:00 +36°C° 0 mm 2 m/s 761 mmHg 18%
    12:00 +37°C° 0 mm 2 m/s 761 mmHg 17%
    13:00 +37°C° 0 mm 2 m/s 760 mmHg 16%
    14:00 +37°C° 0 mm 2 m/s 760 mmHg 16%
    15:00 +37°C° 0 mm 2 m/s 759 mmHg 15%
    16:00 +37°C° 0 mm 3 m/s 759 mmHg 15%
    17:00 +36°C° 0 mm 2 m/s 759 mmHg 17%
    18:00 +35°C° 0 mm 2 m/s 760 mmHg 19%
    19:00 +34°C° 0 mm 2 m/s 760 mmHg 21%
    20:00 +32°C° 0 mm 1 m/s 760 mmHg 23%
    21:00 +32°C° 0 mm 1 m/s 761 mmHg 24%
    22:00 +31°C° 0 mm 1 m/s 761 mmHg 25%
    23:00 +31°C° 0 mm 1 m/s 761 mmHg 26%

    21 Octobre, Dimanche

    Heure Température Précipitation Vent Pression Humidité
    00:00 +30°C° 0 mm 1 m/s 761 mmHg 27%
    01:00 +30°C° 0 mm 1 m/s 761 mmHg 28%
    02:00 +29°C° 0 mm 1 m/s 761 mmHg 28%
    03:00 +29°C° 0 mm 1 m/s 760 mmHg 28%
    04:00 +28°C° 0 mm 1 m/s 760 mmHg 28%
    05:00 +29°C° 0 mm 1 m/s 761 mmHg 28%
    06:00 +29°C° 0 mm 1 m/s 761 mmHg 27%
    07:00 +29°C° 0 mm 1 m/s 761 mmHg 26%
    08:00 +31°C° 0 mm 1 m/s 761 mmHg 24%
    09:00 +32°C° 0 mm 1 m/s 762 mmHg 21%
    10:00 +34°C° 0 mm 1 m/s 762 mmHg 19%
    11:00 +35°C° 0 mm 1 m/s 761 mmHg 19%
    12:00 +37°C° 0 mm 2 m/s 761 mmHg 18%
    13:00 +37°C° 0 mm 2 m/s 760 mmHg 18%
    14:00 +37°C° 0 mm 3 m/s 760 mmHg 19%
    15:00 +37°C° 0 mm 3 m/s 760 mmHg 19%
    16:00 +37°C° 0 mm 3 m/s 759 mmHg 20%
    17:00 +36°C° 0 mm 2 m/s 760 mmHg 24%
    18:00 +35°C° 0 mm 2 m/s 760 mmHg 27%
    19:00 +33°C° 0 mm 1 m/s 760 mmHg 30%
    20:00 +32°C° 0 mm 1 m/s 760 mmHg 32%
    21:00 +31°C° 0 mm 1 m/s 761 mmHg 34%
    22:00 +31°C° 0 mm 1 m/s 761 mmHg 37%
    23:00 +30°C° 0 mm 1 m/s 761 mmHg 38%

    22 Octobre, Lundi

    Heure Température Précipitation Vent Pression Humidité
    00:00 +30°C° 0 mm 1 m/s 761 mmHg 39%
    01:00 +29°C° 0 mm 1 m/s 760 mmHg 40%
    02:00 +29°C° 0 mm 1 m/s 760 mmHg 41%
    03:00 +28°C° 0 mm 1 m/s 760 mmHg 43%
    04:00 +26°C° 0 mm 0 m/s 760 mmHg 44%
    05:00 +28°C° 0 mm 1 m/s 760 mmHg 43%
    06:00 +28°C° 0 mm 1 m/s 761 mmHg 42%
    07:00 +28°C° 0 mm 1 m/s 761 mmHg 40%
    08:00 +30°C° 0 mm 1 m/s 761 mmHg 36%
    09:00 +32°C° 0 mm 1 m/s 762 mmHg 32%
    10:00 +33°C° 0 mm 1 m/s 762 mmHg 28%
    11:00 +34°C° 0 mm 1 m/s 761 mmHg 27%
    12:00 +36°C° 0 mm 2 m/s 760 mmHg 26%
    13:00 +37°C° 0 mm 2 m/s 760 mmHg 25%
    14:00 +37°C° 0 mm 2 m/s 759 mmHg 26%
    15:00 +37°C° 0 mm 3 m/s 759 mmHg 26%
    16:00 +37°C° 0 mm 4 m/s 759 mmHg 27%
    17:00 +36°C° 0 mm 4 m/s 759 mmHg 31%
    18:00 +35°C° 0 mm 4 m/s 759 mmHg 36%
    19:00 +34°C° 0 mm 4 m/s 760 mmHg 40%
    20:00 +33°C° 0 mm 3 m/s 760 mmHg 43%
    21:00 +33°C° 0 mm 3 m/s 760 mmHg 46%
    22:00 +31°C° 0 mm 2 m/s 760 mmHg 49%
    23:00 +31°C° 0 mm 2 m/s 760 mmHg 51%

    23 Octobre, Mardi

    Heure Température Précipitation Vent Pression Humidité
    00:00 +30°C° 0 mm 2 m/s 760 mmHg 53%
    01:00 +30°C° 0 mm 1 m/s 759 mmHg 55%
    02:00 +30°C° 0 mm 1 m/s 759 mmHg 57%
    03:00 +29°C° 0 mm 1 m/s 759 mmHg 58%
    04:00 +29°C° 0 mm 1 m/s 759 mmHg 59%
    05:00 +29°C° 0 mm 1 m/s 760 mmHg 58%
    06:00 +29°C° 0 mm 1 m/s 760 mmHg 58%
    07:00 +29°C° 0 mm 1 m/s 760 mmHg 57%
    08:00 +30°C° 0 mm 1 m/s 760 mmHg 53%
    09:00 +32°C° 0 mm 1 m/s 761 mmHg 48%
    10:00 +33°C° 0 mm 1 m/s 761 mmHg 44%
    11:00 +34°C° 0 mm 1 m/s 760 mmHg 40%
    12:00 +36°C° 0 mm 2 m/s 760 mmHg 37%
    13:00 +37°C° 0 mm 3 m/s 759 mmHg 34%
    14:00 +37°C° 0 mm 3 m/s 759 mmHg 34%
    15:00 +37°C° 0 mm 4 m/s 758 mmHg 35%
    16:00 +37°C° 0 mm 4 m/s 758 mmHg 35%
    17:00 +36°C° 0 mm 4 m/s 758 mmHg 40%
    18:00 +35°C° 0 mm 4 m/s 759 mmHg 44%
    19:00 +34°C° 0 mm 4 m/s 759 mmHg 49%
    20:00 +34°C° 0 mm 3 m/s 759 mmHg 52%
    21:00 +33°C° 0 mm 3 m/s 760 mmHg 56%
    22:00 +32°C° 0 mm 2 m/s 760 mmHg 59%
    23:00 +31°C° 0 mm 2 m/s 760 mmHg 61%
    Voir plus